EW0393 Weather Reports


Display with metric or nautical units.
time (UTC)temp
F
wind
direction
speed
MPH
gust
MPH
rain 1hr
in
rain 24hr
in
rain mn
in
humidity
%
barometer
mb
20260506001119 49 342 4.0 10.0 0.00 0.00 0.00 83 1012.1
20260506000003 49 358 6.0 10.0 0.00 0.00 0.00 84 1012.1
20260505235403 49 356 5.0 10.0 0.00 0.00 0.00 84 1012.1
20260505234503 49 342 4.0 8.0 0.00 0.00 0.00 84 1012.1
20260505233603 49 341 5.0 11.0 0.00 0.00 0.00 84 1012.2
20260505232703 49 348 6.0 11.0 0.00 0.00 0.00 84 1012.3
20260505231803 49 343 6.0 11.0 0.00 0.00 0.00 84 1012.3
20260505230903 49 343 6.0 11.0 0.00 0.00 0.00 84 1012.3
20260505230007 49 341 6.0 9.0 0.00 0.00 0.00 84 1012.3
20260505225618 49 339 5.0 9.0 0.00 0.00 0.00 84 1012.3
20260505224503 49 331 5.0 10.0 0.00 0.00 0.00 83 1012.3
20260505223603 49 335 5.0 10.0 0.00 0.00 0.00 83 1012.4
20260505222703 49 340 5.0 9.0 0.00 0.00 0.00 83 1012.4
20260505221803 49 343 4.0 9.0 0.00 0.00 0.00 83 1012.5
20260505220903 49 343 4.0 8.0 0.00 0.00 0.00 83 1012.5
20260505220004 49 352 4.0 9.0 0.00 0.00 0.00 82 1012.4
20260505215403 49 354 5.0 9.0 0.00 0.00 0.00 82 1012.3
20260505214503 49 4 6.0 16.0 0.00 0.00 0.00 82 1012.4
20260505213603 49 16 7.0 16.0 0.00 0.00 0.00 82 1012.4
20260505212703 49 360 5.0 16.0 0.00 0.00 0.00 81 1012.5
20260505211803 50 354 3.0 6.0 0.00 0.00 0.00 80 1012.5
20260505210903 50 354 4.0 11.0 0.00 0.00 0.00 80 1012.5
20260505210003 50 358 6.0 11.0 0.00 0.00 0.00 80 1012.5
20260505205403 50 359 6.0 12.0 0.00 0.00 0.00 80 1012.5
20260505204503 51 1 6.0 12.0 0.00 0.00 0.00 79 1012.5
20260505203603 51 11 7.0 13.0 0.00 0.00 0.00 79 1012.5
20260505202703 51 2 8.0 13.0 0.00 0.00 0.00 78 1012.5
20260505201803 51 4 8.0 13.0 0.00 0.00 0.00 77 1012.5
20260505200903 52 7 9.0 14.0 0.00 0.00 0.00 77 1012.3
20260505200003 52 358 8.0 14.0 0.00 0.00 0.00 78 1012.3
20260505195620 52 1 7.0 14.0 0.00 0.00 0.00 78 1012.2
20260505194503 52 3 6.0 12.0 0.00 0.00 0.00 79 1012.0
20260505193603 52 358 6.0 12.0 0.00 0.00 0.00 80 1011.9
20260505192703 52 360 5.0 11.0 0.00 0.00 0.00 81 1011.8
20260505191803 52 358 5.0 11.0 0.00 0.00 0.00 82 1011.7
20260505190903 53 357 4.0 8.0 0.00 0.00 0.00 83 1011.7
20260505190219 53 3 4.0 8.0 0.00 0.00 0.00 83 1011.6
20260505185403 52 14 4.0 8.0 0.00 0.00 0.00 83 1011.5
20260505184503 53 17 3.0 7.0 0.00 0.00 0.00 83 1011.6
20260505183603 53 16 3.0 10.0 0.00 0.00 0.00 83 1011.4
20260505182703 53 17 5.0 11.0 0.00 0.00 0.00 81 1011.5
20260505182020 53 15 6.0 10.0 0.00 0.00 0.00 80 1011.6
20260505180903 54 16 7.0 11.0 0.00 0.00 0.00 78 1011.3
20260505180003 54 14 8.0 13.0 0.00 0.00 0.00 77 1011.3
20260505175403 55 10 8.0 13.0 0.00 0.00 0.00 76 1011.4
20260505174503 55 13 8.0 13.0 0.00 0.00 0.00 74 1011.4
20260505173603 56 16 6.0 11.0 0.00 0.00 0.00 72 1011.3
20260505172918 56 9 5.0 11.0 0.00 0.00 0.00 71 1011.4
20260505171803 57 106 1.0 3.0 0.00 0.00 0.00 69 1011.2
20260505170903 57 106 1.0 4.0 0.00 0.00 0.00 69 1011.3
20260505170004 57 106 2.0 4.0 0.00 0.00 0.00 68 1011.3
20260505165617 57 106 1.0 4.0 0.00 0.00 0.00 68 1011.3
20260505164719 57 112 0.0 3.0 0.00 0.00 0.00 68 1011.1
20260505163603 58 128 1.0 5.0 0.00 0.00 0.00 67 1011.2
20260505162703 58 138 2.0 8.0 0.00 0.00 0.00 67 1011.1
20260505161803 58 129 2.0 8.0 0.00 0.00 0.00 66 1011.2
20260505160903 58 133 3.0 7.0 0.00 0.00 0.00 65 1011.2
20260505152703 59 145 4.0 8.0 0.00 0.00 0.00 62 1011.1
20260505151803 59 129 2.0 8.0 0.00 0.00 0.00 63 1011.1
20260505150903 60 139 3.0 8.0 0.00 0.00 0.00 61 1011.2
20260505124717 64 10 1.0 12.0 0.00 0.00 0.00 49 1011.9
20260505123819 66 26 5.0 12.0 0.00 0.00 0.00 48 1012.0
20260505122703 71 33 2.0 12.0 0.00 0.00 0.00 43 1012.0
20260505121803 71 48 4.0 10.0 0.00 0.00 0.00 45 1011.9
20260505121121 71 20 2.0 10.0 0.00 0.00 0.00 46 1011.9
20260505120004 68 9 4.0 11.0 0.00 0.00 0.00 49 1011.9
20260505115403 67 43 4.0 11.0 0.00 0.00 0.00 51 1012.0
20260505114717 65 75 2.0 10.0 0.00 0.00 0.00 49 1012.0
20260505113603 68 358 3.0 10.0 0.00 0.00 0.00 46 1012.1
20260505112703 69 26 4.0 10.0 0.00 0.00 0.00 47 1012.2
20260505111803 68 53 3.0 9.0 0.00 0.00 0.00 54 1012.4
20260505110903 66 56 3.0 9.0 0.00 0.00 0.00 50 1012.1
20260505101803 64 45 3.0 10.0 0.00 0.00 0.00 58 1012.5
20260505100903 64 16 3.0 10.0 0.00 0.00 0.00 56 1012.5
20260505100220 63 14 3.0 10.0 0.00 0.00 0.00 56 1012.6
20260505095621 63 41 4.0 10.0 0.00 0.00 0.00 58 1012.7
20260505094503 63 5 5.0 9.0 0.00 0.00 0.00 59 1012.8
20260505093603 62 3 4.0 9.0 0.00 0.00 0.00 60 1012.7
20260505092703 62 351 4.0 9.0 0.00 0.00 0.00 60 1012.6
20260505091803 60 17 4.0 9.0 0.00 0.00 0.00 62 1012.5
20260505090903 60 3 5.0 8.0 0.00 0.00 0.00 65 1012.5
20260505090003 59 357 5.0 9.0 0.00 0.00 0.00 66 1012.6
20260505085403 59 2 5.0 9.0 0.00 0.00 0.00 67 1012.7
20260505084719 58 6 5.0 9.0 0.00 0.00 0.00 68 1012.7
20260505083603 58 11 6.0 9.0 0.00 0.00 0.00 71 1012.7
20260505082703 58 350 5.0 9.0 0.00 0.00 0.00 72 1012.7
20260505081803 56 344 6.0 9.0 0.00 0.00 0.00 72 1012.9
20260505081119 56 358 6.0 9.0 0.00 0.00 0.00 71 1012.9
20260505080004 57 349 5.0 12.0 0.00 0.00 0.00 70 1012.8
20260505075617 58 356 5.0 12.0 0.00 0.00 0.00 71 1012.7
20260505074503 59 355 7.0 12.0 0.00 0.00 0.00 70 1012.8
20260505073603 59 3 5.0 10.0 0.00 0.00 0.00 72 1012.7
20260505072703 58 22 4.0 10.0 0.00 0.00 0.00 74 1012.6
20260505071803 56 356 5.0 10.0 0.00 0.00 0.00 78 1012.8
20260505070903 54 355 4.0 9.0 0.00 0.00 0.00 80 1013.0
20260505070004 53 356 4.0 8.0 0.00 0.00 0.00 81 1013.0
20260505065403 53 351 4.0 7.0 0.00 0.00 0.00 82 1013.0
20260505064720 53 360 4.0 7.0 0.00 0.00 0.00 84 1013.0
20260505063818 52 6 3.0 5.0 0.00 0.00 0.00 85 1013.1
20260505062920 51 13 2.0 4.0 0.00 0.00 0.00 86 1013.0
20260505061803 51 331 2.0 4.0 0.00 0.00 0.00 88 1013.2
20260505060903 50 319 1.0 3.0 0.00 0.00 0.00 90 1013.1
20260505060217 49 319 0.0 1.0 0.00 0.00 0.00 90 1012.9
20260505055403 48 319 0.0 4.0 0.00 0.00 0.00 91 1013.1
20260505054503 47 313 2.0 4.0 0.00 0.00 0.00 91 1013.1
20260505053603 46 309 2.0 3.0 0.00 0.00 0.00 91 1012.8
20260505052703 46 308 0.0 3.0 0.00 0.00 0.00 91 1012.9
20260505051803 45 308 0.0 1.0 0.00 0.00 0.00 91 1012.9
20260505050903 44 308 0.0 1.0 0.00 0.00 0.00 91 1012.8
20260505050218 43 308 0.0 1.0 0.00 0.00 0.00 91 1012.8
20260505040903 42 0 0.0 0.0 0.00 0.00 0.00 89 1012.8
20260505040004 43 0 0.0 1.0 0.00 0.00 0.00 89 1013.0
20260505035403 43 0 0.0 1.0 0.00 0.00 0.00 89 1012.9
20260505034503 43 32 0.0 1.0 0.00 0.00 0.00 88 1012.9
20260505033603 44 0 0.0 0.0 0.00 0.00 0.00 88 1013.0
20260505032703 45 0 0.0 0.0 0.00 0.00 0.00 88 1013.1
20260505031803 45 0 0.0 0.0 0.00 0.00 0.00 89 1013.1
20260505030903 45 0 0.0 0.0 0.00 0.00 0.00 88 1013.1
20260505030004 46 0 0.0 0.0 0.00 0.00 0.00 88 1013.1
20260505025403 46 0 0.0 0.0 0.00 0.00 0.00 88 1013.1
20260505024503 46 0 0.0 3.0 0.00 0.00 0.00 87 1013.1
20260505023603 47 32 1.0 3.0 0.00 0.00 0.00 87 1013.2
20260505022703 48 32 1.0 3.0 0.00 0.00 0.00 88 1013.2
20260505021803 48 32 0.0 3.0 0.00 0.00 0.00 87 1013.2
20260505021117 48 32 0.0 3.0 0.00 0.00 0.00 87 1013.3
20260505020220 49 32 1.0 3.0 0.00 0.00 0.00 87 1013.3
20260505015403 49 32 1.0 4.0 0.00 0.00 0.00 87 1013.1
20260505014503 50 37 2.0 4.0 0.00 0.00 0.00 87 1013.1
20260505013603 50 59 2.0 3.0 0.00 0.00 0.00 87 1013.3
20260505012703 50 59 0.0 3.0 0.00 0.00 0.00 87 1013.4
20260505011803 50 59 1.0 3.0 0.00 0.00 0.00 87 1013.5
20260505010903 50 59 1.0 3.0 0.00 0.00 0.00 87 1013.5
20260505010004 50 59 1.0 3.0 0.00 0.00 0.00 87 1013.5
20260505005617 50 59 1.0 3.0 0.00 0.00 0.00 86 1013.6
20260505004503 50 59 1.0 2.0 0.00 0.00 0.00 86 1013.6
20260505003603 50 59 0.0 3.0 0.00 0.00 0.00 86 1013.9
20260505002919 50 59 1.0 5.0 0.00 0.00 0.00 86 1013.9
20260505002021 50 49 3.0 5.0 0.00 0.00 0.00 86 1013.9